Location: Unspecified
(0.0000°N, 0.0000°E)
Time: 17:53:25
(UTC+00:00)

Hubble Space Telescope - Pass Details

Date: 18 October 2021
Orbit: 535 x 538 km, 28.5° (Epoch: 23 October)

Event Time Altitude Azimuth Distance (km) Brightness Sun altitude
Rises 18:45:20 0° 220° (SW) 2,667 5.1 -14.8°
Reaches altitude 10° 18:47:56 10° 205° (SSW) 1,776 3.9 -15.5°
Maximum altitude 18:51:15 23° 151° (SSE) 1,147 2.2 -16.3°
Enters shadow 18:52:17 21° 128° (SE) 1,221 2.2 -16.5°
